Wind_Speed
6 5 5 5 6 4 4 4 3 3 3 3 3 3 3 3 3 3 3 3 3 3 4 4 5 5 5 6 6 6 7 7 7 7 7 8 8 8 8 7 7 6 6 6 6 6 6 6 6
6 6 6 7 6 6 5 4 4 3 4 3 4 4 4 4 4 4 4 4 4 4 4 5 5 6 6 7 7 8 8 9 9 9 8 8 8 8 7 7 7 7 7 7 7 7 7 6 6
6 7 7 7 7 7 5 5 5 5 4 4 4 4 4 3 4 4 4 5 5 5 5 5 6 7 7 7 8 9 10 10 11 10 9 9 8 9 9 8 8 8 9 8 8 7 7 7 7
7 7 8 8 7 7 6 5 5 5 4 5 4 5 4 4 4 5 5 5 5 5 6 6 6 7 7 8 9 10 10 10 11 10 10 10 9 9 9 9 9 9 9 9 8 8 8 7 7
7 7 8 8 7 6 6 5 6 5 6 6 6 6 5 5 5 5 6 6 5 6 6 6 6 6 7 8 9 9 9 8 9 10 10 9 10 10 10 10 9 9 10 9 9 9 8 8 8
7 7 8 8 7 7 6 6 6 6 6 6 6 6 6 6 5 6 6 6 6 6 7 7 7 7 7 8 9 7 7 7 8 9 10 10 10 10 9 9 9 10 10 10 10 9 9 9 9
6 7 7 7 7 7 6 6 6 6 6 5 6 6 6 6 6 6 6 7 7 7 8 7 7 8 8 8 7 6 6 6 7 8 8 9 9 9 9 9 9 9 9 9 9 9 9 10 10
7 7 7 7 7 6 6 6 6 6 6 6 6 6 6 6 6 6 7 7 7 8 8 8 8 8 8 8 8 8 7 7 7 7 8 8 9 9 9 9 9 9 9 9 9 10 10 9 9
7 7 7 7 7 7 6 6 6 6 6 6 6 6 6 6 7 7 8 8 8 8 8 8 8 8 9 8 9 8 7 8 7 7 8 8 9 9 9 9 9 10 9 9 9 10 9 9 9
7 8 7 7 7 7 7 7 7 7 6 6 6 6 7 7 7 7 8 8 8 8 8 8 8 8 8 8 8 9 8 8 8 8 8 9 9 9 9 9 9 9 9 9 9 9 9 9 10
7 8 8 8 6 6 7 8 7 7 7 7 7 7 7 7 8 8 8 8 8 9 9 9 9 9 9 9 8 9 9 9 9 9 9 9 9 9 10 10 10 9 9 9 9 10 10 10 10
8 8 8 8 7 7 8 8 8 8 7 8 8 8 8 8 8 8 8 8 8 9 9 9 9 9 9 9 9 9 9 9 9 10 11 10 10 10 11 10 10 10 10 10 10 10 11 11 11
8 8 9 9 8 8 8 8 8 8 8 8 8 8 8 8 8 8 8 9 9 9 9 10 10 9 9 9 9 9 9 9 9 10 11 11 11 11 11 11 10 10 10 10 10 11 11 11 12
8 9 9 9 9 9 9 9 9 8 8 8 8 8 8 9 9 9 9 9 10 10 10 10 10 10 10 10 10 9 9 9 9 10 10 11 11 12 12 12 11 11 11 11 11 12 12 13 13
8 9 9 9 10 9 9 9 9 9 9 9 10 10 10 10 11 10 10 11 11 11 11 11 11 11 11 10 10 10 10 10 10 10 10 11 12 12 13 13 12 12 12 12 13 13 13 13 13
8 8 9 9 9 9 8 8 9 9 9 9 10 11 11 11 11 11 12 12 12 12 13 13 12 12 12 11 11 11 11 11 11 11 12 12 13 14 14 14 14 13 13 13 13 13 13 13 13
8 8 8 8 8 8 8 8 9 9 10 10 10 11 11 11 12 12 12 12 12 12 13 13 13 13 13 13 13 13 13 13 13 13 13 14 14 14 15 14 14 14 14 14 14 14 14 14 13
8 8 8 8 8 8 9 8 8 9 10 11 11 11 11 11 12 12 12 13 13 13 14 14 14 14 14 14 14 14 14 14 14 14 14 14 14 13 14 14 15 15 15 15 15 15 14 14 14
8 8 8 8 9 9 9 8 8 9 10 10 10 11 11 11 11 12 12 13 14 14 14 13 14 14 14 15 16 15 14 14 14 14 14 14 14 14 14 15 15 16 16 16 16 16 15 15 15
9 9 8 8 9 9 9 9 10 10 10 10 10 11 11 11 11 11 12 13 13 14 14 14 13 13 13 14 14 14 14 14 14 15 15 15 15 15 15 16 16 17 17 17 17 18 17 17 16
9 9 8 8 9 10 10 9 9 9 10 10 11 11 12 12 12 12 12 13 13 13 13 14 14 14 14 14 14 14 15 14 15 15 15 15 15 15 15 16 16 17 17 18 18 19 19 18 17
9 9 9 9 9 10 11 10 8 9 10 10 10 11 12 12 11 11 12 13 13 13 13 14 15 15 15 15 15 15 16 16 16 16 15 15 15 16 16 16 16 17 17 18 18 19 19 19 19
9 9 10 10 10 10 10 11 9 9 10 10 11 11 11 11 11 10 11 13 13 13 13 14 15 16 16 16 16 16 17 17 17 16 16 16 16 16 16 17 17 17 17 18 19 19 20 20 20
9 10 10 11 10 10 10 11 10 10 10 10 11 11 11 11 11 12 12 12 13 14 14 15 15 16 16 17 17 17 17 17 18 17 17 17 18 18 18 19 19 19 19 19 19 19 20 20 20
10 10 11 11 11 11 11 12 10 10 10 10 10 11 11 11 12 12 12 12 13 14 14 15 15 16 16 17 17 17 17 18 18 18 18 19 19 20 20 20 21 21 21 21 21 20 20 20 20
11 12 12 13 13 12 12 12 11 11 11 10 11 11 11 11 11 11 12 13 14 14 15 15 16 16 16 17 17 17 17 18 19 20 20 21 21 21 21 22 22 22 22 22 22 21 20 21 21
13 13 13 14 15 14 13 12 11 11 11 11 11 11 11 12 12 12 12 13 14 15 15 16 16 16 17 18 18 18 19 19 20 20 21 21 22 22 21 22 23 23 23 22 22 21 21 21 21
14 14 14 15 15 15 14 13 11 11 12 12 12 12 12 12 13 13 14 14 15 15 16 16 16 17 18 18 19 19 19 20 20 20 21 21 21 21 21 22 23 22 22 21 21 21 21 21 20
14 15 15 15 15 15 15 13 12 12 12 12 12 12 12 13 13 14 15 15 16 16 16 17 17 17 18 18 19 19 20 20 21 21 21 21 21 21 21 22 22 21 20 21 21 21 20 20 20
14 14 15 15 15 15 14 12 12 12 12 12 12 13 13 14 14 15 15 16 17 17 17 17 17 18 18 19 19 19 19 20 21 21 21 21 22 21 21 21 21 20 19 20 20 20 20 20 20
Wind_Direction
228 228 229 231 238 241 241 239 235 235 230 239 257 265 264 264 266 259 257 260 264 273 285 285 284 285 285 287 286 284 280 276 269 266 265 261 259 260 261 266 265 268 270 271 278 274 278 274 267
237 234 235 238 247 248 244 243 239 234 239 246 260 265 262 261 268 267 263 267 272 277 283 285 285 282 281 285 286 281 276 272 267 263 261 259 256 258 264 266 265 268 269 272 277 279 277 275 268
242 238 237 243 247 248 245 246 255 256 252 253 258 260 266 267 266 261 265 270 273 278 280 286 288 284 282 286 288 286 281 272 263 256 255 256 257 258 264 267 266 266 265 267 272 276 279 279 276
246 246 244 247 252 249 251 255 264 267 258 259 256 251 256 263 260 260 265 273 274 280 280 286 290 286 285 289 294 293 284 270 258 252 253 256 256 256 261 266 266 266 265 266 270 272 275 276 275
252 251 250 251 251 256 257 260 266 273 259 260 260 255 255 258 259 264 270 276 276 281 283 281 285 286 288 294 298 295 289 270 255 251 252 255 256 257 259 264 266 264 263 264 268 273 276 275 270
250 252 253 252 252 256 252 258 268 270 266 264 260 258 259 258 259 265 271 274 280 281 282 278 278 282 287 292 300 298 291 266 253 253 253 256 258 258 260 264 263 260 262 266 270 273 274 273 270
251 253 255 254 257 258 253 260 266 270 263 265 267 264 263 260 261 268 270 277 279 280 278 276 277 279 284 290 294 296 285 267 260 257 254 257 258 258 258 262 263 260 261 266 270 273 274 271 268
252 254 255 256 254 255 261 271 276 278 274 272 276 268 266 264 261 265 271 275 276 278 278 277 278 280 283 288 291 287 280 274 269 262 258 257 262 264 262 264 264 260 260 266 270 274 273 269 267
258 259 256 257 257 257 261 275 279 274 272 271 272 272 272 269 267 269 271 271 273 277 277 279 280 283 284 286 288 286 280 279 275 269 262 260 262 266 268 267 268 268 266 268 272 273 272 268 268
261 260 258 257 257 260 262 269 277 276 269 263 266 270 269 269 269 270 270 268 272 275 276 278 278 282 286 287 287 287 282 278 277 272 268 269 269 267 265 265 267 268 267 268 270 270 269 268 269
261 261 259 259 262 267 269 265 269 272 267 264 266 266 270 274 274 272 270 270 274 274 273 276 275 279 281 284 284 287 286 279 275 270 271 272 270 270 267 264 264 266 266 266 269 271 270 268 270
263 263 264 265 268 272 275 274 270 269 271 271 269 265 267 277 280 274 273 269 270 273 272 271 271 275 277 281 284 286 284 280 277 272 269 269 268 270 271 266 265 266 265 264 265 268 268 267 269
260 262 262 262 263 266 268 273 274 270 270 270 269 268 270 273 280 280 274 274 271 272 275 275 275 275 277 281 281 283 283 279 278 276 271 269 268 270 270 270 267 267 267 265 266 267 266 268 268
261 261 259 259 263 264 265 272 276 272 272 273 272 271 274 271 275 278 273 273 273 272 274 275 275 277 276 278 280 283 282 282 280 278 275 274 271 271 269 268 269 267 266 269 269 269 268 268 267
258 256 259 261 264 268 269 272 275 273 272 273 274 275 277 275 276 276 273 272 273 275 276 276 276 275 274 274 279 281 282 282 280 278 277 276 272 271 271 268 268 267 267 269 270 271 270 268 267
263 259 258 258 260 265 271 274 274 276 277 274 275 275 277 277 277 276 276 276 274 274 275 275 275 274 273 274 278 279 280 281 279 280 280 278 274 271 271 269 268 267 267 268 267 268 269 268 266
265 260 259 260 262 266 272 276 278 280 280 278 279 278 277 276 275 276 277 278 276 274 272 272 274 274 273 273 277 277 279 279 277 278 279 277 275 272 269 269 266 266 266 266 267 266 266 267 265
266 266 264 267 271 270 271 276 283 283 280 279 280 279 278 277 275 274 274 275 275 275 275 274 273 275 276 276 278 278 277 276 276 278 278 276 274 272 270 267 265 264 264 266 266 266 266 266 267
263 264 268 272 273 274 273 277 282 283 283 283 281 280 280 279 275 274 275 276 274 273 275 274 273 275 275 276 278 277 274 274 275 277 277 275 275 271 270 267 265 264 263 265 265 264 265 266 267
266 266 269 270 271 274 277 279 283 282 282 281 279 278 280 278 276 274 277 276 275 275 276 275 274 276 279 278 279 275 276 277 279 279 276 276 276 273 271 271 268 265 263 265 265 265 264 265 266
264 267 271 273 276 278 279 278 285 282 283 284 283 282 281 278 279 277 278 276 275 277 277 277 278 280 282 281 281 280 280 278 278 279 277 277 276 275 273 272 273 270 266 266 266 266 266 265 265
258 263 267 272 272 276 280 280 282 285 286 290 291 288 285 280 279 276 279 280 278 277 277 277 278 281 281 281 282 281 279 277 278 276 275 276 277 276 274 272 272 272 270 269 267 266 265 264 264
257 261 266 271 274 276 280 279 283 284 288 290 293 293 290 284 281 279 284 284 281 279 278 278 279 279 279 280 282 282 282 281 280 276 275 276 276 275 274 272 272 271 270 270 269 268 265 265 263
257 259 265 270 273 274 278 281 284 291 294 295 297 296 294 287 285 284 284 285 284 283 281 280 281 280 279 280 282 282 282 281 281 278 275 274 274 275 274 272 271 270 269 270 270 269 267 265 263
259 260 263 266 269 274 279 281 289 290 293 293 295 296 293 288 285 284 285 286 286 287 285 284 283 282 280 281 283 284 283 282 280 280 279 278 276 275 274 273 272 271 270 270 270 269 268 266 265
260 262 265 270 272 274 276 278 287 287 288 292 294 293 291 289 285 286 287 287 286 287 286 286 287 285 282 283 285 287 286 284 283 281 281 280 279 278 276 274 274 272 271 272 271 268 268 268 268
258 259 265 270 274 278 276 281 281 283 286 291 293 291 289 288 289 289 290 290 288 288 287 287 288 287 286 286 286 287 287 286 285 284 282 281 279 279 278 277 276 274 272 272 269 266 266 266 266
254 258 262 266 273 279 280 281 281 280 283 287 288 287 287 289 289 290 291 291 290 288 287 286 287 288 289 289 289 287 286 286 285 285 283 280 279 278 277 277 276 273 270 269 267 266 264 265 264
255 258 262 267 271 277 280 280 281 279 281 283 284 284 284 287 288 287 290 289 290 289 287 285 285 287 288 290 290 289 288 289 287 286 283 281 280 279 276 275 276 274 273 270 266 265 264 261 260
255 257 261 265 270 273 276 280 279 279 279 282 283 281 281 284 285 285 288 288 290 289 287 285 285 287 289 290 291 293 293 291 290 288 284 281 281 280 278 277 274 273 272 270 266 265 263 260 260
Height
5870 5871 5871 5872 5872 5872 5871 5872 5871 5871 5871 5871 5871 5872 5872 5872 5873 5874 5872 5870 5871 5870 5870 5870 5870 5870 5870 5869 5869 5869 5868 5868 5868 5868 5868 5868 5868 5868 5869 5869 5869 5869 5868 5868 5868 5868 5867 5867 5867
5869 5870 5871 5871 5871 5870 5871 5870 5870 5870 5870 5870 5870 5871 5871 5871 5871 5870 5869 5869 5869 5869 5869 5869 5869 5868 5868 5868 5867 5867 5866 5866 5866 5866 5867 5867 5867 5867 5867 5867 5868 5867 5867 5867 5867 5867 5866 5866 5866
5868 5869 5870 5870 5869 5869 5869 5869 5869 5869 5869 5869 5870 5869 5870 5870 5869 5869 5869 5869 5868 5868 5868 5868 5868 5867 5867 5866 5865 5864 5863 5862 5863 5864 5865 5865 5866 5866 5866 5866 5866 5866 5866 5866 5865 5865 5865 5865 5865
5867 5868 5869 5868 5867 5867 5868 5868 5868 5868 5868 5868 5868 5868 5868 5868 5868 5868 5867 5867 5867 5867 5867 5867 5866 5866 5865 5864 5862 5860 5858 5857 5859 5861 5863 5864 5864 5864 5864 5864 5864 5864 5864 5864 5864 5864 5864 5864 5864
5866 5867 5867 5866 5866 5866 5866 5866 5866 5866 5866 5866 5867 5866 5866 5867 5866 5866 5866 5866 5866 5866 5865 5865 5865 5864 5864 5862 5860 5857 5854 5854 5856 5859 5861 5862 5862 5862 5863 5863 5863 5863 5863 5863 5863 5862 5862 5862 5862
5865 5865 5865 5864 5864 5864 5865 5864 5864 5865 5865 5865 5865 5865 5865 5865 5865 5864 5864 5864 5864 5864 5864 5864 5863 5863 5863 5862 5859 5856 5854 5854 5855 5858 5859 5860 5860 5861 5861 5861 5861 5861 5861 5861 5861 5861 5860 5860 5860
5863 5863 5863 5863 5863 5863 5863 5863 5863 5863 5863 5863 5863 5863 5863 5863 5863 5863 5862 5863 5863 5863 5863 5862 5862 5862 5861 5861 5859 5858 5856 5855 5856 5857 5858 5858 5859 5859 5859 5859 5859 5859 5859 5859 5859 5859 5858 5858 5858
5861 5862 5861 5861 5861 5861 5861 5861 5861 5861 5861 5861 5861 5861 5861 5862 5862 5861 5861 5861 5861 5861 5861 5861 5861 5860 5860 5859 5858 5857 5856 5856 5856 5856 5856 5857 5857 5857 5857 5857 5857 5857 5857 5857 5857 5856 5856 5856 5856
5859 5861 5859 5859 5859 5859 5859 5859 5859 5859 5859 5860 5859 5860 5860 5860 5860 5860 5860 5860 5860 5860 5859 5859 5859 5859 5858 5858 5857 5856 5855 5855 5855 5855 5855 5855 5855 5855 5855 5854 5854 5854 5854 5854 5854 5854 5854 5854 5854
5857 5858 5857 5857 5857 5857 5857 5857 5857 5857 5857 5858 5858 5858 5858 5858 5858 5858 5858 5858 5858 5858 5858 5858 5857 5857 5856 5856 5856 5855 5854 5854 5853 5853 5853 5853 5853 5853 5852 5852 5852 5852 5852 5852 5852 5852 5852 5852 5851
5855 5855 5855 5855 5855 5855 5855 5855 5855 5856 5856 5856 5856 5856 5856 5856 5856 5856 5856 5856 5856 5856 5856 5856 5855 5855 5854 5854 5854 5853 5853 5852 5851 5851 5851 5851 5850 5850 5850 5850 5850 5849 5849 5849 5849 5849 5849 5849 5849
5853 5853 5853 5853 5853 5854 5853 5853 5854 5854 5854 5854 5854 5854 5854 5854 5854 5853 5853 5854 5854 5854 5853 5853 5853 5853 5852 5852 5851 5851 5851 5850 5850 5849 5849 5848 5848 5848 5848 5847 5847 5847 5847 5847 5847 5847 5847 5847 5847
5851 5851 5851 5851 5851 5851 5852 5851 5852 5852 5852 5852 5852 5852 5852 5852 5852 5851 5851 5851 5851 5851 5851 5851 5851 5850 5850 5849 5849 5849 5848 5848 5847 5847 5846 5846 5846 5845 5845 5845 5845 5845 5845 5845 5844 5844 5844 5844 5844
5849 5848 5848 5848 5849 5849 5849 5849 5850 5849 5849 5849 5849 5849 5850 5849 5849 5849 5849 5849 5848 5848 5848 5848 5848 5848 5847 5847 5846 5846 5846 5845 5845 5844 5844 5843 5843 5843 5842 5842 5842 5842 5842 5842 5841 5841 5841 5841 5841
5846 5846 5846 5846 5846 5847 5847 5848 5847 5847 5847 5847 5847 5847 5847 5847 5847 5847 5847 5847 5846 5846 5845 5845 5845 5845 5845 5844 5844 5843 5843 5843 5842 5842 5841 5841 5840 5840 5839 5839 5839 5839 5839 5839 5839 5839 5838 5838 5838
5844 5844 5844 5844 5844 5844 5846 5846 5845 5844 5845 5845 5844 5845 5844 5844 5844 5844 5844 5844 5843 5843 5843 5842 5842 5842 5842 5841 5841 5841 5840 5840 5839 5838 5838 5837 5837 5836 5836 5836 5836 5836 5836 5836 5836 5835 5835 5835 5835
5841 5842 5842 5842 5842 5842 5843 5842 5842 5842 5842 5842 5842 5842 5841 5841 5841 5841 5841 5840 5840 5840 5840 5839 5839 5838 5838 5838 5838 5837 5837 5836 5836 5835 5835 5834 5834 5833 5833 5832 5832 5832 5832 5832 5832 5832 5832 5832 5831
5839 5839 5839 5839 5840 5840 5840 5840 5840 5839 5839 5839 5839 5838 5838 5838 5838 5837 5837 5837 5837 5837 5836 5836 5835 5835 5834 5834 5834 5834 5833 5833 5832 5831 5831 5830 5830 5829 5829 5829 5829 5828 5828 5828 5828 5828 5828 5828 5828
5836 5837 5837 5837 5837 5837 5837 5837 5837 5836 5836 5836 5836 5835 5835 5835 5835 5834 5834 5833 5833 5833 5833 5833 5832 5832 5831 5830 5830 5829 5829 5829 5828 5827 5827 5826 5826 5826 5825 5825 5825 5824 5824 5824 5824 5824 5824 5824 5824
5834 5834 5834 5834 5834 5834 5834 5834 5833 5833 5833 5833 5832 5832 5832 5831 5831 5831 5830 5830 5829 5829 5828 5829 5828 5828 5827 5827 5826 5825 5825 5824 5824 5823 5823 5822 5822 5821 5821 5821 5821 5820 5820 5820 5820 5820 5820 5820 5820
5831 5831 5832 5832 5831 5831 5831 5832 5831 5830 5830 5829 5828 5828 5828 5827 5827 5827 5827 5826 5826 5825 5825 5825 5824 5824 5824 5823 5822 5821 5820 5820 5820 5819 5818 5818 5817 5817 5816 5816 5816 5816 5815 5816 5815 5815 5816 5815 5816
5829 5829 5829 5829 5829 5829 5829 5829 5829 5827 5827 5826 5825 5825 5824 5824 5824 5823 5823 5823 5822 5822 5821 5821 5820 5820 5819 5819 5818 5817 5816 5816 5815 5814 5814 5813 5812 5812 5812 5811 5811 5811 5811 5810 5810 5810 5810 5810 5811
5827 5826 5826 5826 5826 5826 5825 5825 5826 5824 5823 5823 5822 5821 5820 5820 5820 5820 5819 5819 5818 5818 5817 5817 5816 5816 5815 5814 5814 5813 5812 5811 5809 5809 5809 5808 5808 5807 5807 5806 5806 5806 5805 5805 5805 5805 5805 5805 5805
5824 5824 5823 5823 5823 5823 5822 5821 5822 5821 5820 5819 5819 5818 5817 5816 5816 5816 5816 5815 5815 5814 5813 5813 5812 5811 5811 5810 5809 5809 5807 5806 5805 5804 5803 5802 5802 5801 5801 5801 5800 5800 5800 5799 5799 5799 5799 5799 5799
5821 5821 5821 5820 5820 5820 5819 5818 5819 5817 5816 5816 5815 5815 5814 5813 5813 5812 5812 5812 5811 5810 5809 5809 5808 5807 5806 5805 5805 5804 5803 5801 5800 5798 5797 5796 5796 5795 5795 5794 5794 5794 5793 5793 5793 5793 5793 5793 5793
5817 5818 5818 5818 5817 5816 5815 5814 5815 5814 5813 5812 5812 5811 5810 5810 5810 5809 5808 5808 5807 5806 5805 5804 5804 5803 5802 5800 5799 5798 5797 5796 5794 5793 5792 5790 5789 5789 5788 5787 5787 5787 5787 5787 5787 5787 5787 5787 5788
5813 5813 5814 5814 5812 5812 5811 5811 5811 5810 5809 5809 5808 5808 5807 5806 5806 5805 5804 5803 5803 5802 5801 5800 5799 5798 5797 5795 5794 5793 5791 5790 5788 5787 5785 5784 5783 5782 5781 5781 5780 5780 5780 5780 5780 5780 5781 5781 5781
5810 5810 5810 5809 5808 5807 5808 5808 5808 5807 5806 5806 5805 5804 5804 5803 5802 5802 5801 5800 5799 5798 5797 5795 5794 5793 5792 5790 5789 5787 5785 5784 5782 5781 5779 5778 5777 5776 5775 5774 5773 5773 5773 5773 5773 5774 5774 5775 5775
5806 5806 5805 5805 5805 5804 5803 5806 5804 5803 5803 5802 5802 5801 5800 5799 5799 5798 5797 5795 5794 5793 5792 5790 5789 5788 5786 5785 5783 5781 5779 5777 5776 5774 5773 5772 5770 5769 5768 5768 5767 5766 5766 5766 5767 5767 5768 5768 5769
5801 5801 5801 5801 5801 5800 5799 5803 5800 5800 5799 5798 5798 5797 5796 5795 5794 5793 5792 5791 5789 5788 5786 5785 5784 5782 5781 5779 5777 5775 5774 5772 5770 5768 5766 5765 5764 5763 5762 5761 5760 5760 5760 5760 5760 5761 5761 5762 5763